DECAYED

STARLINK-2243, 48013 (Decayed)

Orbit data source: Space-Track

STARLINK-2243, 48013 was a payload satellite owned by SpaceX/Seattle (US) in LEO that was launched on Wed, 24 Mar 2021 UTC via an FALCON 9 launch vehicle from the Air Force Eastern Test Range (AFETR). Payload-class satellites include a variety of spacecraft equipped with specific instruments for various scientific and technological missions. These include communications satellites like Starlink; space stations such as the ISS; scientific satellites like the Hubble; Earth observation satellites from companies like Planet Labs, Umbra, and HawkEye 360; GPS; miniature CubeSats for education and research; and military/defense satellites.

Not visible in the next 10 days
Identifier
48013, 2021-024AN
Orbit
Decayed
Country
Flag of USUS
Related business
Manufacturer
SpaceX/Seattle
Mission
Decayed Commercial Communications
Bus & Motor
STARLINK, Unknown motor
Mass
260 kg wet, ~248 kg dry
Launch date (UTC)
2021-03-24 (5 years ago)
Launch vehicle
FALCON 9
Launch site
Air Force Eastern Test Range (AFETR)
Object type
Payload
Rocket body
Debris
Shape & HBR
Box + 1 Pan, 10.1 m
Radar Cross Section
13.562 m², Large (>1 m²)

Expand to show TLE details & history
Last TLE update: 1 year ago

TLE from 1 year ago
0 STARLINK-2243
1 48013U 21024AN  25040.11493146  .16964380  12508-4  52786-3 0  9993
2 48013  53.0209 234.0666 0005956 278.9167 184.0907 16.44653380215679
Epoch: 2025-02-09T02:45Z
TLE epoch observation values (Epoch: 2025-02-09T02:45:30.078Z)
Latitude
51.269°
Longitude
164.26249°
Altitude
163.376 km
Speed
7.812 km/s
True Right ascension
23h 00m 21s
True Declination
51° 05' 09"
Sunlit
Object was in daylight at epoch
Visualization orbit readout
Latitude
Unknown
Longitude
Unknown
Altitude
Unknown
Speed
Unknown
Apparent Right ascension
Unknown
Apparent Declination
Unknown
Sunlit
N/A
Visualization observer readout
Local Sidereal Time
21:26:33
Azimuth
Unknown
Elevation
Unknown
Doppler factor
Unknown
Orbital elements
Apogee altitude
157.636 km
Perigee altitude
149.855 km
Semi-major axis
6,531.882 km
Eccentricity
0.0006
Inclination
53.0209°
RAAN
234.0666°
Arg. of periapsis
278.9167°
True anomaly
184.08583°
Mean anomaly
184.0907°
Eccentric anomaly
184.08827°
Mean motion
4.11136 °/min
Orbital period
87.56 mins
BSTAR
0.00052786
Loading maneuver chart data...
Computing Atmospheric mass density...

Documentation

Showing up to 5 results
|